KLM1632 KMLB-KDWH

Flight info

Callsign KLM1632
Flight time 2h 15m
Altitude 30000
Route ORL RDSOX JFRYS PATOY Q116 JAWJA CABLO DEFUN J2 CEW J50 AEX HUDZY4
Aircraft B738/M-SDE2E3FGHIRWXY/LB1

Departure

Time 2026-04-20 10:43
Airport Melbourne Orlando International Airport (KMLB)

Arrival

Time 2026-04-20 12:59
Airport David Wayne Hooks Memorial Airport (KDWH)
Time Latitude Longitude Altitude Speed Heading
2026-04-20 10:09 28.09936 -80.63060 32 ft 0 kts 209°
2026-04-20 10:29 28.09955 -80.63047 32 ft 2 kts 209°
2026-04-20 10:29 28.09973 -80.63033 31 ft 4 kts 237°
2026-04-20 10:30 28.09979 -80.63007 32 ft 3 kts 280°
2026-04-20 10:30 28.09976 -80.62986 32 ft 0 kts 281°
2026-04-20 10:32 28.09978 -80.62997 32 ft 4 kts 281°
2026-04-20 10:32 28.09984 -80.63034 31 ft 5 kts 281°
2026-04-20 10:33 28.09987 -80.63070 31 ft 4 kts 269°
2026-04-20 10:33 28.09975 -80.63101 31 ft 4 kts 236°
2026-04-20 10:33 28.09951 -80.63129 30 ft 5 kts 221°
2026-04-20 10:33 28.09918 -80.63157 30 ft 7 kts 215°
2026-04-20 10:34 28.09884 -80.63199 30 ft 8 kts 249°
2026-04-20 10:34 28.09896 -80.63257 30 ft 8 kts 310°
2026-04-20 10:34 28.09946 -80.63301 30 ft 10 kts 314°
2026-04-20 10:35 28.10059 -80.63440 31 ft 14 kts 312°
2026-04-20 10:35 28.10097 -80.63491 31 ft 12 kts 302°
2026-04-20 10:35 28.10105 -80.63617 34 ft 13 kts 268°
2026-04-20 10:35 28.10102 -80.63720 35 ft 14 kts 268°
2026-04-20 10:36 28.10098 -80.63842 34 ft 17 kts 268°
2026-04-20 10:36 28.10092 -80.63986 34 ft 19 kts 266°
2026-04-20 10:36 28.10087 -80.64087 36 ft 19 kts 267°
2026-04-20 10:36 28.10080 -80.64238 38 ft 18 kts 267°
2026-04-20 10:37 28.10073 -80.64379 37 ft 18 kts 267°
2026-04-20 10:37 28.10066 -80.64512 37 ft 16 kts 267°
2026-04-20 10:37 28.10061 -80.64627 38 ft 14 kts 267°
2026-04-20 10:37 28.10056 -80.64734 38 ft 14 kts 268°
2026-04-20 10:38 28.10052 -80.64854 36 ft 17 kts 267°
2026-04-20 10:38 28.10045 -80.64998 36 ft 19 kts 267°
2026-04-20 10:38 28.10039 -80.65154 37 ft 20 kts 267°
2026-04-20 10:38 28.10032 -80.65311 38 ft 20 kts 267°
2026-04-20 10:39 28.10025 -80.65467 39 ft 20 kts 266°
2026-04-20 10:39 28.10017 -80.65618 41 ft 18 kts 267°
2026-04-20 10:39 28.10011 -80.65751 42 ft 16 kts 266°
2026-04-20 10:39 28.10004 -80.65867 43 ft 14 kts 265°
2026-04-20 10:40 28.09998 -80.65967 44 ft 12 kts 267°
2026-04-20 10:40 28.09995 -80.66053 44 ft 7 kts 270°
2026-04-20 10:40 28.10004 -80.66096 44 ft 5 kts 294°
2026-04-20 10:40 28.10013 -80.66108 44 ft 0 kts 317°
2026-04-20 10:41 28.10017 -80.66110 44 ft 1 kts 338°
2026-04-20 10:41 28.10024 -80.66108 44 ft 2 kts 12°
2026-04-20 10:41 28.10045 -80.66102 44 ft 4 kts 11°
2026-04-20 10:42 28.10089 -80.66096 41 ft 9 kts 12°
2026-04-20 10:42 28.10136 -80.66040 40 ft 10 kts 79°
2026-04-20 10:42 28.10138 -80.65908 39 ft 23 kts 87°
2026-04-20 10:42 28.10167 -80.65542 39 ft 59 kts 85°
2026-04-20 10:43 28.10187 -80.64926 37 ft 101 kts 85°
2026-04-20 10:43 28.10229 -80.63961 35 ft 144 kts 86°
2026-04-20 10:43 28.10271 -80.62734 369 ft 159 kts 87°
2026-04-20 10:43 28.10261 -80.61504 740 ft 173 kts 87°
2026-04-20 10:44 28.10263 -80.60144 1359 ft 173 kts 87°
2026-04-20 10:44 28.10243 -80.58800 1977 ft 172 kts 83°
2026-04-20 10:44 28.10450 -80.57445 2483 ft 177 kts 78°
2026-04-20 10:44 28.10560 -80.55968 2642 ft 206 kts 86°
2026-04-20 10:45 28.10592 -80.54200 2736 ft 241 kts 83°
2026-04-20 10:45 28.11033 -80.52320 3248 ft 254 kts 60°
2026-04-20 10:45 28.12192 -80.50817 3984 ft 257 kts 34°
2026-04-20 10:45 28.13850 -80.50067 4794 ft 261 kts
2026-04-20 10:46 28.15664 -80.50233 5514 ft 267 kts 342°
2026-04-20 10:46 28.17279 -80.51303 6198 ft 274 kts 317°
2026-04-20 10:46 28.18448 -80.53014 7001 ft 275 kts 301°
2026-04-20 10:46 28.19334 -80.54938 7785 ft 277 kts 297°
2026-04-20 10:47 28.20194 -80.56906 8486 ft 281 kts 297°
2026-04-20 10:47 28.21108 -80.58885 9208 ft 283 kts 298°
2026-04-20 10:47 28.22035 -80.60861 9936 ft 285 kts 298°
2026-04-20 10:47 28.22948 -80.62836 10619 ft 288 kts 297°
2026-04-20 10:48 28.23882 -80.64879 11090 ft 297 kts 297°
2026-04-20 10:48 28.24861 -80.67017 11349 ft 314 kts 297°
2026-04-20 10:48 28.25905 -80.69279 11528 ft 332 kts 297°
2026-04-20 10:48 28.27004 -80.71660 11698 ft 348 kts 297°
2026-04-20 10:49 28.28135 -80.74134 12032 ft 358 kts 297°
2026-04-20 10:49 28.29285 -80.76657 12578 ft 361 kts 297°
2026-04-20 10:49 28.30441 -80.79184 13232 ft 361 kts 297°
2026-04-20 10:49 28.31600 -80.81720 13816 ft 362 kts 295°
2026-04-20 10:50 28.32701 -80.84289 14384 ft 362 kts 291°
2026-04-20 10:50 28.33489 -80.87009 14902 ft 363 kts 282°
2026-04-20 10:50 28.33823 -80.89839 15459 ft 362 kts 275°
2026-04-20 10:50 28.34110 -80.92690 15969 ft 364 kts 278°
2026-04-20 10:51 28.34626 -80.95479 16439 ft 367 kts 284°
2026-04-20 10:51 28.35468 -80.98222 16933 ft 369 kts 291°
2026-04-20 10:51 28.36587 -81.00849 17429 ft 371 kts 296°
2026-04-20 10:51 28.37894 -81.03391 17869 ft 374 kts 299°
2026-04-20 10:52 28.39282 -81.05893 18297 ft 375 kts 299°
2026-04-20 10:52 28.40672 -81.08408 18723 ft 376 kts 299°
2026-04-20 10:52 28.42044 -81.10950 19111 ft 378 kts 298°
2026-04-20 10:52 28.43417 -81.13510 19493 ft 380 kts 298°
2026-04-20 10:53 28.44806 -81.16078 19849 ft 382 kts 299°
2026-04-20 10:53 28.46215 -81.18655 20211 ft 384 kts 299°
2026-04-20 10:53 28.47629 -81.21239 20560 ft 386 kts 299°
2026-04-20 10:53 28.49048 -81.23833 20890 ft 387 kts 299°
2026-04-20 10:54 28.50474 -81.26443 21217 ft 389 kts 299°
2026-04-20 10:54 28.51903 -81.29067 21532 ft 391 kts 298°
2026-04-20 10:54 28.53309 -81.31674 21837 ft 392 kts 298°
2026-04-20 10:54 28.54647 -81.34385 22143 ft 392 kts 294°
2026-04-20 10:55 28.55763 -81.37213 22437 ft 391 kts 290°
2026-04-20 10:55 28.56737 -81.40110 22696 ft 393 kts 288°
2026-04-20 10:55 28.57686 -81.43035 22979 ft 394 kts 288°
2026-04-20 10:55 28.58658 -81.45974 23244 ft 396 kts 289°
2026-04-20 10:56 28.59644 -81.48908 23509 ft 397 kts 289°
2026-04-20 10:56 28.60635 -81.51840 23770 ft 398 kts 289°
2026-04-20 10:56 28.61622 -81.54756 23997 ft 400 kts 289°
2026-04-20 10:56 28.62577 -81.57585 24220 ft 401 kts 289°
2026-04-20 10:57 28.63578 -81.60559 24469 ft 403 kts 289°
2026-04-20 10:57 28.64583 -81.63542 24719 ft 403 kts 289°
2026-04-20 10:57 28.65589 -81.66527 24984 ft 403 kts 289°
2026-04-20 10:57 28.66595 -81.69515 25238 ft 404 kts 289°
2026-04-20 10:58 28.67599 -81.72517 25477 ft 404 kts 289°
2026-04-20 10:58 28.68584 -81.75475 25699 ft 405 kts 289°
2026-04-20 10:58 28.69587 -81.78478 25941 ft 405 kts 289°
2026-04-20 10:58 28.70591 -81.81477 26148 ft 406 kts 289°
2026-04-20 10:59 28.71595 -81.84479 26385 ft 405 kts 289°
2026-04-20 10:59 28.72599 -81.87488 26603 ft 406 kts 289°
2026-04-20 10:59 28.73599 -81.90492 26799 ft 406 kts 289°
2026-04-20 10:59 28.74601 -81.93507 26989 ft 407 kts 289°
2026-04-20 11:00 28.75603 -81.96522 27175 ft 407 kts 289°
2026-04-20 11:00 28.76610 -81.99544 27351 ft 408 kts 289°
2026-04-20 11:00 28.77620 -82.02565 27565 ft 407 kts 289°
2026-04-20 11:00 28.78627 -82.05572 27854 ft 405 kts 289°
2026-04-20 11:01 28.79629 -82.08563 28181 ft 402 kts 289°
2026-04-20 11:01 28.80620 -82.11531 28488 ft 399 kts 289°
2026-04-20 11:01 28.81605 -82.14483 28747 ft 397 kts 289°
2026-04-20 11:01 28.82573 -82.17378 29042 ft 394 kts 289°
2026-04-20 11:02 28.83545 -82.20290 29285 ft 393 kts 289°
2026-04-20 11:02 28.84514 -82.23203 29511 ft 391 kts 289°
2026-04-20 11:02 28.85483 -82.26112 29602 ft 394 kts 289°
2026-04-20 11:03 28.87436 -82.31993 29813 ft 397 kts 289°
2026-04-20 11:03 28.88412 -82.34939 29957 ft 397 kts 289°
2026-04-20 11:03 28.89389 -82.37884 30114 ft 397 kts 289°
2026-04-20 11:04 28.91248 -82.43842 30212 ft 399 kts 287°
2026-04-20 11:04 28.93118 -82.49766 30219 ft 398 kts 289°
2026-04-20 11:05 28.95075 -82.55663 30213 ft 396 kts 289°
2026-04-20 11:05 28.97021 -82.61552 30219 ft 396 kts 289°
2026-04-20 11:06 28.98981 -82.67421 30221 ft 395 kts 289°
2026-04-20 11:06 29.00931 -82.73291 30221 ft 394 kts 289°
2026-04-20 11:07 29.02885 -82.79158 30222 ft 395 kts 289°
2026-04-20 11:07 29.04815 -82.84993 30226 ft 395 kts 289°
2026-04-20 11:08 29.06766 -82.90865 30226 ft 395 kts 291°
2026-04-20 11:08 29.09391 -82.96407 30231 ft 397 kts 298°
2026-04-20 11:09 29.12363 -83.01700 30229 ft 398 kts 298°
2026-04-20 11:09 29.15301 -83.07067 30228 ft 398 kts 298°
2026-04-20 11:10 29.18246 -83.12429 30240 ft 397 kts 298°
2026-04-20 11:10 29.21179 -83.17751 30246 ft 396 kts 298°
2026-04-20 11:11 29.24122 -83.23099 30242 ft 396 kts 298°
2026-04-20 11:11 29.27054 -83.28444 30252 ft 396 kts 298°
2026-04-20 11:12 29.29988 -83.33792 30250 ft 395 kts 298°
2026-04-20 11:12 29.32919 -83.39129 30246 ft 395 kts 298°
2026-04-20 11:13 29.35781 -83.44338 30246 ft 395 kts 298°
2026-04-20 11:13 29.38692 -83.49638 30254 ft 395 kts 298°
2026-04-20 11:14 29.41624 -83.54958 30256 ft 395 kts 298°
2026-04-20 11:14 29.44550 -83.60276 30259 ft 393 kts 298°
2026-04-20 11:15 29.47467 -83.65590 30258 ft 393 kts 298°
2026-04-20 11:15 29.50363 -83.70874 30266 ft 393 kts 298°
2026-04-20 11:16 29.53271 -83.76180 30287 ft 392 kts 298°
2026-04-20 11:16 29.56171 -83.81496 30290 ft 391 kts 298°
2026-04-20 11:17 29.59063 -83.86805 30291 ft 392 kts 298°
2026-04-20 11:17 29.61941 -83.92076 30288 ft 390 kts 298°
2026-04-20 11:18 29.64837 -83.97368 30296 ft 390 kts 298°
2026-04-20 11:18 29.67727 -84.02662 30290 ft 391 kts 298°
2026-04-20 11:19 29.70613 -84.07958 30290 ft 391 kts 298°
2026-04-20 11:19 29.73481 -84.13225 30294 ft 390 kts 298°
2026-04-20 11:20 29.76374 -84.18530 30291 ft 391 kts 298°
2026-04-20 11:20 29.79277 -84.23840 30300 ft 391 kts 298°
2026-04-20 11:21 29.82173 -84.29140 30300 ft 391 kts 298°
2026-04-20 11:21 29.85055 -84.34400 30300 ft 391 kts 298°
2026-04-20 11:22 29.87896 -84.39583 30301 ft 391 kts 298°
2026-04-20 11:22 29.90799 -84.44888 30310 ft 392 kts 298°
2026-04-20 11:23 29.93214 -84.49318 30308 ft 393 kts 298°
2026-04-20 11:23 29.96587 -84.55526 30309 ft 392 kts 298°
2026-04-20 11:24 29.99014 -84.59997 30303 ft 392 kts 298°
2026-04-20 11:24 30.01898 -84.65313 30302 ft 392 kts 298°
2026-04-20 11:25 30.04780 -84.70637 30300 ft 390 kts 298°
2026-04-20 11:25 30.07663 -84.75955 30302 ft 391 kts 298°
2026-04-20 11:26 30.10560 -84.81301 30303 ft 392 kts 298°
2026-04-20 11:26 30.13435 -84.86618 30308 ft 391 kts 298°
2026-04-20 11:27 30.16320 -84.91962 30314 ft 392 kts 298°
2026-04-20 11:27 30.19215 -84.97333 30312 ft 393 kts 298°
2026-04-20 11:28 30.22102 -85.02673 30316 ft 392 kts 298°
2026-04-20 11:28 30.24998 -85.08015 30314 ft 392 kts 298°
2026-04-20 11:29 30.27913 -85.13385 30314 ft 394 kts 298°
2026-04-20 11:29 30.30814 -85.18773 30311 ft 395 kts 298°
2026-04-20 11:30 30.33701 -85.24134 30309 ft 394 kts 298°
2026-04-20 11:30 30.36593 -85.29516 30314 ft 394 kts 298°
2026-04-20 11:31 30.39484 -85.34902 30320 ft 393 kts 298°
2026-04-20 11:31 30.42385 -85.40301 30320 ft 395 kts 298°
2026-04-20 11:32 30.45289 -85.45705 30320 ft 395 kts 298°
2026-04-20 11:32 30.48182 -85.51117 30321 ft 394 kts 298°
2026-04-20 11:33 30.51060 -85.56484 30326 ft 395 kts 298°
2026-04-20 11:33 30.53996 -85.61904 30324 ft 396 kts 298°
2026-04-20 11:34 30.56889 -85.67292 30329 ft 394 kts 297°
2026-04-20 11:34 30.59746 -85.72737 30327 ft 394 kts 298°
2026-04-20 11:35 30.62641 -85.78146 30329 ft 394 kts 298°
2026-04-20 11:35 30.65540 -85.83559 30340 ft 394 kts 298°
2026-04-20 11:36 30.68428 -85.88938 30336 ft 394 kts 298°
2026-04-20 11:36 30.71335 -85.94338 30339 ft 394 kts 298°
2026-04-20 11:37 30.74246 -85.99734 30344 ft 393 kts 298°
2026-04-20 11:37 30.78586 -86.07834 30349 ft 395 kts 298°
2026-04-20 11:38 30.80669 -86.13608 30332 ft 388 kts 279°
2026-04-20 11:38 30.80827 -86.19882 30356 ft 390 kts 269°
2026-04-20 11:39 30.80544 -86.26034 30353 ft 389 kts 269°
2026-04-20 11:39 30.80310 -86.32336 30350 ft 389 kts 270°
2026-04-20 11:40 30.80078 -86.38599 30356 ft 390 kts 270°
2026-04-20 11:40 30.79827 -86.44915 30359 ft 391 kts 269°
2026-04-20 11:41 30.79572 -86.51246 30361 ft 392 kts 269°
2026-04-20 11:41 30.79306 -86.57526 30358 ft 390 kts 269°
2026-04-20 11:42 30.79043 -86.63827 30357 ft 390 kts 269°
2026-04-20 11:42 30.78779 -86.70132 30360 ft 390 kts 269°
2026-04-20 11:43 30.78523 -86.76450 30356 ft 391 kts 269°
2026-04-20 11:43 30.78261 -86.82747 30351 ft 393 kts 269°
2026-04-20 11:44 30.77984 -86.89086 30343 ft 391 kts 269°
2026-04-20 11:44 30.77696 -86.95412 30341 ft 391 kts 269°
2026-04-20 11:45 30.77404 -87.01753 30343 ft 393 kts 269°
2026-04-20 11:45 30.77116 -87.08070 30344 ft 393 kts 269°
2026-04-20 11:46 30.76836 -87.14424 30340 ft 392 kts 269°
2026-04-20 11:46 30.76558 -87.20781 30341 ft 394 kts 269°
2026-04-20 11:47 30.76267 -87.27106 30338 ft 394 kts 269°
2026-04-20 11:47 30.75965 -87.33476 30341 ft 395 kts 269°
2026-04-20 11:48 30.75670 -87.39850 30342 ft 395 kts 269°
2026-04-20 11:48 30.75364 -87.46230 30343 ft 395 kts 269°
2026-04-20 11:49 30.75070 -87.52579 30348 ft 395 kts 269°
2026-04-20 11:49 30.74779 -87.58944 30349 ft 396 kts 269°
2026-04-20 11:50 30.74474 -87.65346 30349 ft 397 kts 269°
2026-04-20 11:50 30.74164 -87.71749 30350 ft 396 kts 269°
2026-04-20 11:51 30.73847 -87.78172 30351 ft 398 kts 269°
2026-04-20 11:51 30.73532 -87.84594 30349 ft 398 kts 269°
2026-04-20 11:52 30.73226 -87.90969 30353 ft 397 kts 269°
2026-04-20 11:52 30.72916 -87.97378 30360 ft 397 kts 269°
2026-04-20 11:53 30.72600 -88.03605 30356 ft 397 kts 269°
2026-04-20 11:53 30.72272 -88.10033 30361 ft 398 kts 269°
2026-04-20 11:54 30.71935 -88.16458 30354 ft 398 kts 269°
2026-04-20 11:54 30.71599 -88.22849 30351 ft 398 kts 269°
2026-04-20 11:55 30.71264 -88.29281 30349 ft 399 kts 269°
2026-04-20 11:55 30.70927 -88.35717 30350 ft 399 kts 269°
2026-04-20 11:56 30.70583 -88.42156 30352 ft 398 kts 269°
2026-04-20 11:56 30.70245 -88.48546 30348 ft 398 kts 269°
2026-04-20 11:57 30.69901 -88.54961 30352 ft 397 kts 269°
2026-04-20 11:57 30.69481 -88.61360 30350 ft 397 kts 267°
2026-04-20 11:58 30.68964 -88.67756 30350 ft 398 kts 267°
2026-04-20 11:58 30.68458 -88.74124 30348 ft 398 kts 267°
2026-04-20 11:59 30.67954 -88.80531 30341 ft 397 kts 268°
2026-04-20 11:59 30.67452 -88.86923 30341 ft 396 kts 268°
2026-04-20 12:00 30.66956 -88.93302 30348 ft 397 kts 268°
2026-04-20 12:00 30.66462 -88.99694 30359 ft 397 kts 268°
2026-04-20 12:01 30.65963 -89.06088 30359 ft 397 kts 268°
2026-04-20 12:01 30.65472 -89.12327 30363 ft 396 kts 268°
2026-04-20 12:02 30.64972 -89.18676 30383 ft 396 kts 268°
2026-04-20 12:02 30.64476 -89.25052 30379 ft 397 kts 268°
2026-04-20 12:03 30.63981 -89.31440 30380 ft 397 kts 268°
2026-04-20 12:03 30.63484 -89.37785 30385 ft 397 kts 268°
2026-04-20 12:04 30.62985 -89.44172 30379 ft 397 kts 268°
2026-04-20 12:04 30.62491 -89.50567 30379 ft 397 kts 268°
2026-04-20 12:05 30.62000 -89.56918 30379 ft 398 kts 268°
2026-04-20 12:05 30.61499 -89.63331 30387 ft 399 kts 268°
2026-04-20 12:06 30.61001 -89.69754 30378 ft 398 kts 268°
2026-04-20 12:06 30.60506 -89.76153 30388 ft 398 kts 268°
2026-04-20 12:07 30.60011 -89.82528 30381 ft 398 kts 268°
2026-04-20 12:07 30.59514 -89.88937 30384 ft 398 kts 268°
2026-04-20 12:08 30.59016 -89.95331 30389 ft 398 kts 268°
2026-04-20 12:08 30.58513 -90.01746 30391 ft 399 kts 268°
2026-04-20 12:09 30.57992 -90.08174 30392 ft 400 kts 268°
2026-04-20 12:09 30.57472 -90.14598 30390 ft 399 kts 268°
2026-04-20 12:10 30.57051 -90.19923 30391 ft 399 kts 268°
2026-04-20 12:10 30.56547 -90.26343 30388 ft 399 kts 268°
2026-04-20 12:11 30.56047 -90.32762 30381 ft 399 kts 268°
2026-04-20 12:11 30.55551 -90.39173 30378 ft 397 kts 268°
2026-04-20 12:12 30.55053 -90.45514 30380 ft 397 kts 268°
2026-04-20 12:12 30.54547 -90.51908 30390 ft 398 kts 268°
2026-04-20 12:13 30.54038 -90.58317 30386 ft 398 kts 268°
2026-04-20 12:13 30.53525 -90.64714 30379 ft 398 kts 268°
2026-04-20 12:14 30.53005 -90.71068 30380 ft 398 kts 268°
2026-04-20 12:14 30.52488 -90.77458 30385 ft 398 kts 268°
2026-04-20 12:15 30.51973 -90.83865 30377 ft 398 kts 267°
2026-04-20 12:15 30.51463 -90.90260 30379 ft 398 kts 267°
2026-04-20 12:16 30.50962 -90.96628 30391 ft 399 kts 267°
2026-04-20 12:16 30.50458 -91.03043 30390 ft 399 kts 267°
2026-04-20 12:17 30.49949 -91.09466 30378 ft 400 kts 267°
2026-04-20 12:17 30.49433 -91.15892 30379 ft 399 kts 267°
2026-04-20 12:18 30.48924 -91.22270 30381 ft 400 kts 267°
2026-04-20 12:18 30.48417 -91.28711 30383 ft 401 kts 267°
2026-04-20 12:19 30.47909 -91.35162 30390 ft 401 kts 267°
2026-04-20 12:19 30.47392 -91.41609 30389 ft 401 kts 266°
2026-04-20 12:20 30.46881 -91.48060 30388 ft 402 kts 266°
2026-04-20 12:20 30.46370 -91.54518 30375 ft 402 kts 266°
2026-04-20 12:21 30.45853 -91.60972 30368 ft 402 kts 266°
2026-04-20 12:21 30.45338 -91.67381 30375 ft 401 kts 266°
2026-04-20 12:22 30.44805 -91.73841 30374 ft 403 kts 266°
2026-04-20 12:22 30.44285 -91.80320 30370 ft 403 kts 266°
2026-04-20 12:23 30.43775 -91.86755 30371 ft 402 kts 266°
2026-04-20 12:23 30.43266 -91.93214 30370 ft 402 kts 266°
2026-04-20 12:24 30.42753 -91.99686 30371 ft 404 kts 266°
2026-04-20 12:24 30.42232 -92.06175 30373 ft 405 kts 266°
2026-04-20 12:25 30.41706 -92.12678 30370 ft 404 kts 266°
2026-04-20 12:25 30.41191 -92.19129 30369 ft 404 kts 266°
2026-04-20 12:26 30.40666 -92.25615 30380 ft 404 kts 266°
2026-04-20 12:26 30.40137 -92.32112 30371 ft 404 kts 266°
2026-04-20 12:27 30.39607 -92.38600 30371 ft 404 kts 266°
2026-04-20 12:27 30.39073 -92.45049 30371 ft 404 kts 266°
2026-04-20 12:28 30.38532 -92.51538 30376 ft 404 kts 266°
2026-04-20 12:28 30.37998 -92.58029 30376 ft 404 kts 266°
2026-04-20 12:29 30.37466 -92.64518 30384 ft 404 kts 266°
2026-04-20 12:29 30.36945 -92.71002 30381 ft 404 kts 266°
2026-04-20 12:30 30.36422 -92.77444 30392 ft 404 kts 266°
2026-04-20 12:30 30.35889 -92.83945 30396 ft 405 kts 265°
2026-04-20 12:31 30.35356 -92.90451 30380 ft 405 kts 265°
2026-04-20 12:31 30.34831 -92.96906 30384 ft 405 kts 265°
2026-04-20 12:32 30.34297 -93.03415 30382 ft 406 kts 265°
2026-04-20 12:32 30.33757 -93.09927 30390 ft 406 kts 265°
2026-04-20 12:33 30.33213 -93.16434 30375 ft 406 kts 265°
2026-04-20 12:33 30.32676 -93.22923 30369 ft 407 kts 265°
2026-04-20 12:34 30.32134 -93.29452 30379 ft 407 kts 265°
2026-04-20 12:34 30.31592 -93.35940 30379 ft 408 kts 265°
2026-04-20 12:35 30.31053 -93.42484 30391 ft 408 kts 265°
2026-04-20 12:35 30.30511 -93.49032 30392 ft 409 kts 264°
2026-04-20 12:36 30.29960 -93.55593 30390 ft 409 kts 264°
2026-04-20 12:36 30.29416 -93.62137 30386 ft 409 kts 264°
2026-04-20 12:37 30.28861 -93.68672 30391 ft 410 kts 264°
2026-04-20 12:37 30.28292 -93.75251 30378 ft 410 kts 264°
2026-04-20 12:38 30.27750 -93.81626 30379 ft 409 kts 264°
2026-04-20 12:38 30.27200 -93.88157 30371 ft 410 kts 264°
2026-04-20 12:39 30.26335 -93.98028 30381 ft 411 kts 264°
2026-04-20 12:40 30.25756 -94.04611 30239 ft 414 kts 264°
2026-04-20 12:40 30.25469 -94.07939 29736 ft 416 kts 264°
2026-04-20 12:40 30.25179 -94.11255 29201 ft 413 kts 264°
2026-04-20 12:40 30.24885 -94.14545 28710 ft 408 kts 264°
2026-04-20 12:41 30.24595 -94.17803 28199 ft 406 kts 264°
2026-04-20 12:41 30.24307 -94.21034 27689 ft 402 kts 264°
2026-04-20 12:41 30.24022 -94.24203 27186 ft 399 kts 264°
2026-04-20 12:41 30.23728 -94.27386 26678 ft 397 kts 265°
2026-04-20 12:42 30.23435 -94.30540 26165 ft 393 kts 265°
2026-04-20 12:42 30.23108 -94.33679 25657 ft 392 kts 262°
2026-04-20 12:42 30.22514 -94.36750 25153 ft 390 kts 257°
2026-04-20 12:42 30.21690 -94.39744 24648 ft 391 kts 254°
2026-04-20 12:43 30.20774 -94.42692 24110 ft 388 kts 253°
2026-04-20 12:43 30.19854 -94.45639 23574 ft 388 kts 254°
2026-04-20 12:43 30.18960 -94.48577 23040 ft 387 kts 254°
2026-04-20 12:43 30.18088 -94.51476 22512 ft 386 kts 254°
2026-04-20 12:44 30.17206 -94.54397 21981 ft 383 kts 253°
2026-04-20 12:44 30.16324 -94.57304 21452 ft 382 kts 253°
2026-04-20 12:44 30.15448 -94.60197 20925 ft 382 kts 253°
2026-04-20 12:44 30.14574 -94.63083 20386 ft 379 kts 253°
2026-04-20 12:45 30.13698 -94.65976 19865 ft 379 kts 253°
2026-04-20 12:45 30.12844 -94.68803 19352 ft 375 kts 253°
2026-04-20 12:45 30.11985 -94.71650 18839 ft 376 kts 253°
2026-04-20 12:45 30.11125 -94.74494 18318 ft 373 kts 253°
2026-04-20 12:46 30.10271 -94.77319 17809 ft 373 kts 252°
2026-04-20 12:46 30.09416 -94.80134 17292 ft 369 kts 252°
2026-04-20 12:46 30.08563 -94.82932 16785 ft 368 kts 252°
2026-04-20 12:46 30.07711 -94.85717 16279 ft 367 kts 252°
2026-04-20 12:47 30.06874 -94.88460 15777 ft 364 kts 252°
2026-04-20 12:47 30.06035 -94.91221 15271 ft 363 kts 252°
2026-04-20 12:47 30.05202 -94.93972 14797 ft 362 kts 252°
2026-04-20 12:47 30.04371 -94.96719 14433 ft 363 kts 252°
2026-04-20 12:48 30.03537 -94.99451 14173 ft 359 kts 251°
2026-04-20 12:48 30.02663 -95.02162 13905 ft 364 kts 250°
2026-04-20 12:48 30.01726 -95.04866 13314 ft 362 kts 250°
2026-04-20 12:48 30.00824 -95.07574 12765 ft 360 kts 250°
2026-04-20 12:49 29.99834 -95.10207 12239 ft 353 kts 245°
2026-04-20 12:49 29.98730 -95.12649 11794 ft 340 kts 242°
2026-04-20 12:49 29.97597 -95.14975 11402 ft 326 kts 241°
2026-04-20 12:49 29.96569 -95.17092 11158 ft 311 kts 242°
2026-04-20 12:50 29.95548 -95.19236 10836 ft 300 kts 242°
2026-04-20 12:50 29.94556 -95.21335 10342 ft 296 kts 242°
2026-04-20 12:50 29.93582 -95.23406 9874 ft 291 kts 242°
2026-04-20 12:50 29.92622 -95.25448 9410 ft 288 kts 242°
2026-04-20 12:51 29.91679 -95.27470 8938 ft 285 kts 242°
2026-04-20 12:51 29.90765 -95.29447 8499 ft 281 kts 242°
2026-04-20 12:51 29.89857 -95.31423 8069 ft 277 kts 242°
2026-04-20 12:51 29.88960 -95.33380 7642 ft 274 kts 242°
2026-04-20 12:52 29.88073 -95.35318 7224 ft 272 kts 242°
2026-04-20 12:52 29.87195 -95.37235 6831 ft 268 kts 242°
2026-04-20 12:52 29.86333 -95.39129 6431 ft 265 kts 242°
2026-04-20 12:52 29.85490 -95.40995 6046 ft 261 kts 242°
2026-04-20 12:53 29.84661 -95.42834 5663 ft 257 kts 242°
2026-04-20 12:53 29.83910 -95.44697 5307 ft 255 kts 250°
2026-04-20 12:53 29.83545 -95.46681 4953 ft 253 kts 267°
2026-04-20 12:53 29.83796 -95.48653 4598 ft 248 kts 291°
2026-04-20 12:54 29.84658 -95.50313 4245 ft 236 kts 313°
2026-04-20 12:54 29.85877 -95.51519 3734 ft 228 kts 328°
2026-04-20 12:54 29.87228 -95.52436 3048 ft 223 kts 339°
2026-04-20 12:54 29.88679 -95.52888 2567 ft 208 kts 358°
2026-04-20 12:55 29.90041 -95.52995 2403 ft 184 kts
2026-04-20 12:55 29.91234 -95.53107 2306 ft 166 kts 358°
2026-04-20 12:55 29.92374 -95.53287 2067 ft 172 kts 355°
2026-04-20 12:55 29.93507 -95.53475 1942 ft 156 kts 356°
2026-04-20 12:56 29.94568 -95.53628 1873 ft 153 kts 357°
2026-04-20 12:56 29.95651 -95.53770 2002 ft 158 kts 357°
2026-04-20 12:56 29.96755 -95.53947 2052 ft 161 kts 354°
2026-04-20 12:56 29.97862 -95.54192 1996 ft 162 kts 353°
2026-04-20 12:57 29.98979 -95.54394 1846 ft 161 kts 358°
2026-04-20 12:57 30.00083 -95.54504 1522 ft 157 kts 358°
2026-04-20 12:57 30.01166 -95.54624 1199 ft 156 kts 357°
2026-04-20 12:57 30.02240 -95.54765 837 ft 155 kts 355°
2026-04-20 12:58 30.03285 -95.54908 580 ft 152 kts 355°
2026-04-20 12:58 30.04330 -95.55056 400 ft 149 kts 355°
2026-04-20 12:58 30.04994 -95.55144 271 ft 143 kts 355°
2026-04-20 12:58 30.06190 -95.55312 153 ft 102 kts 352°
2026-04-20 12:59 30.06633 -95.55377 152 ft 39 kts 352°
2026-04-20 12:59 30.06789 -95.55401 152 ft 28 kts 353°
2026-04-20 12:59 30.06941 -95.55425 151 ft 6 kts 354°
2026-04-20 12:59 30.06958 -95.55424 152 ft 1 kts
2026-04-20 13:00 30.06965 -95.55422 152 ft 0 kts 21°
2026-04-20 13:00 30.06971 -95.55417 152 ft 2 kts 32°
2026-04-20 13:00 30.06978 -95.55409 152 ft 1 kts 49°
2026-04-20 13:00 30.06984 -95.55394 152 ft 3 kts 71°
2026-04-20 13:01 30.06988 -95.55366 153 ft 3 kts 84°
2026-04-20 13:01 30.06990 -95.55332 153 ft 6 kts 88°
2026-04-20 13:01 30.06990 -95.55303 153 ft 4 kts 89°
2026-04-20 13:01 30.06990 -95.55265 153 ft 6 kts 90°
2026-04-20 13:02 30.06990 -95.55229 154 ft 3 kts 90°
2026-04-20 13:02 30.06990 -95.55200 154 ft 2 kts 90°
2026-04-20 13:02 30.06990 -95.55181 154 ft 3 kts 90°
2026-04-20 13:02 30.06987 -95.55169 154 ft 2 kts 112°
2026-04-20 13:03 30.06981 -95.55164 154 ft 1 kts 142°
2026-04-20 13:03 30.06969 -95.55160 155 ft 3 kts 170°
2026-04-20 13:03 30.06940 -95.55158 155 ft 4 kts 179°
2026-04-20 13:03 30.06912 -95.55147 154 ft 4 kts 141°
2026-04-20 13:04 30.06909 -95.55135 154 ft 0 kts 95°
2026-04-20 13:04 30.06911 -95.55130 154 ft 1 kts 68°
2026-04-20 13:04 30.06919 -95.55123 155 ft 3 kts 36°
2026-04-20 13:04 30.06935 -95.55118 155 ft 0 kts
2026-04-20 13:06 30.06963 -95.55281 153 ft 0 kts